COSMOS 1544

Last updated on Sat Apr 13 2024 01:02:09 GMT+0100 (British Summer Time)

1 14819U 84027A 24103.22179743 .00071101 00000+0 64492-3 0 9996 2 14819 82.4708 18.8244 0006471 152.5159 207.6445 15.67737724197225
UTC large
Height (km)
Speed (km/s)
/
Latitude / Longitude
Inclination (degrees)
Orbital Period (minutes)
Azimuth
Elevation
Range (km)
Doppler Factor

Next 0 passes for location: London (51.5072 / 0.1276)

Sorry there are no passes over London.